Location: Unspecified
(33.6682°S, 0.0000°E)
Time: 17:05:43
(UTC+00:00)

Vanguard 1 - Pass Details

Date: 25 June 2019
Orbit: 653 x 3830 km, 34.3° (Epoch: 17 July)

Event Time Altitude Azimuth Distance (km) Brightness Sun altitude
Rises 21:12:08 0° 256° (WSW) 5,938 14.7 -51.4°
Reaches altitude 10° 21:15:51 10° 263° (W) 5,309 14.2 -52.2°
Maximum altitude 21:31:03 39° 325° (NW) 4,474 13.3 -55.4°
Enters shadow 21:37:56 33° 355° (N) 5,043 13.4 -56.8°
